Flag for Philippines Weather past 2 weeks in Isabela City, Philippines

Now
88 °F

Partly sunny.


Feels Like: 100 °F
Forecast: 78 / 90 °F
Wind: 2 mph from East

Location: Zamboanga

Current Time: Sep 16, 2014 at 11:48:23 AM

Latest Report: Sep 16, 2014 at 11:00 AM


Visibility: N/A

Pressure: 29.92 "Hg

Humidity: 70%

Dew point: 77 °F

Location of Isabela CityLocation

Historic Weather in Isabela City — Graph

°F

Isabela City temperature yesterday

Maximum temperature yesterday: 90 °F (at 1:00 PM)
Minimum temperature yesterday: 77 °F (at 5:00 AM)
Average temperature yesterday: 84 °F

Past Weeks' High & Low Weather Summary

 TemperatureHumidityPressure
High91 °F (Sep 2, 4:00 PM)100% (Sep 4, 2:00 AM)29.98 "Hg (Sep 4, 2:00 AM)
Low73 °F (Sep 6, 5:00 AM)38% (Sep 6, 11:00 AM)29.74 "Hg (Sep 4, 3:00 PM)
Average83 °F82%29.87 "Hg
* Reported Sep 1 10:00 AM — Sep 16 10:00 AM, Isabela City, Weather by CustomWeather, © 2014

Note: Actual official high and low records may vary slightly from our data, if they occured in-between our weather recording intervals... More about our weather records

Advertising

Isabela City weather history for previous 24 hours

 ConditionsComfort  
Time TempWeatherWind HumidityBarometerVisibility
10:00 AM
Sep 16
88 °FBroken clouds.2 mph70%29.92 "HgN/A
9:00 AM82 °FBroken clouds.2 mph79%29.92 "HgN/A
8:00 AM82 °FPartly sunny.2 mph79%29.92 "HgN/A
7:00 AM77 °FPartly sunny.2 mph79%29.89 "HgN/A
6:00 AM75 °FPartly sunny.2 mph83%29.86 "HgN/A
5:00 AM75 °FOvercast.2 mph89%29.86 "HgN/A
2:00 AM75 °FPassing clouds.2 mph94%29.86 "HgN/A
11:00 PM
Sep 15
77 °FPassing clouds.5 mph94%29.89 "HgN/A
8:00 PM81 °FPassing clouds.No wind89%29.86 "HgN/A
6:00 PM84 °FPassing clouds.No wind74%29.83 "Hg6 mi
5:00 PM86 °FPartly sunny.No wind75%29.80 "HgN/A
4:00 PM88 °FPartly sunny.No wind70%29.80 "HgN/A
3:00 PM90 °FOvercast.2 mph71%29.80 "HgN/A
2:00 PM90 °FMore clouds than sun.2 mph67%29.83 "HgN/A
1:00 PM90 °FOvercast.2 mph71%29.83 "HgN/A
12:00 PM88 °FOvercast.No wind70%29.86 "HgN/A
11:00 AM86 °FOvercast.No wind79%29.86 "HgN/A
Weather by CustomWeather, © 2014

See weather overviewHow to use our weather pages